Regional Weather Roundup
Issued by NWS

Home | Current Version | Previous Version | Graphics & Text | Print | Product List | Glossary On
Versions: 1 2 3 4 5 6 7 8 9 10 11 12 13 14 15 16 17 18 19 20 21 22 23 24 25 26 27 28 29 30 31 32 33 34 35 36 37 38 39 40 41 42 43 44 45 46 47 48 49 50
000
ASUS43 KMKX 280559
RWRWI

WISCONSIN REGIONAL WEATHER ROUNDUP
NATIONAL WEATHER SERVICE MILWAUKEE/SULLIVAN WI
1200 AM CST SAT FEB 28 2015

NOTE: "FAIR" INDICATES FEW OR NO CLOUDS BELOW 12,000 FEET WITH NO
SIGNIFICANT WEATHER AND/OR OBSTRUCTIONS TO VISIBILITY.

WIZ001-002-006>008-014>016-023>028-280700-
NORTHWEST WISCONSIN

CITY           SKY/WX    TMP DP  RH WIND       PRES   REMARKS
SUPERIOR ARPT  CLEAR      6  -4  62 W7        30.48R WCI  -5
ASHLAND        CLEAR      5  -6  60 SW7       30.47R WCI  -7
6HR MIN TEMP:   4; 6HR MAX TEMP:  15;

HAYWARD        CLEAR     -5 -11  75 CALM      30.47R
6HR MIN TEMP:  -5; 6HR MAX TEMP:  12;

SIREN          CLEAR      5  -2  71 SW7       30.50S WCI  -7
CUMBERLAND     CLEAR      0  -8  71 SW8       30.48S WCI -15
RICE LAKE      CLEAR      0  -6  76 S3        30.52R
CHETEK         CLEAR      0  -4  84 CALM      30.51S
LADYSMITH      CLEAR      0  -4  81 S5        30.51R WCI -10
EAU CLAIRE     NOT AVBL
MENOMONIE      CLEAR      2  -5  73 S5        30.55R WCI  -8
NEW RICHMOND   CLEAR      2  -4  77 S6        30.52R WCI -10
OSCEOLA        CLEAR      1  -4  77 S6        30.55R WCI -10
$$

WIZ003>005-009-010-017-018-280700-
NORTH CENTRAL WISCONSIN

CITY           SKY/WX    TMP DP  RH WIND       PRES   REMARKS
MANITOWISH WTR CLEAR     -1  -9  69 SW5       30.41S WCI -11
ARBOR VITAE    CLEAR     -4 -10  72 CALM      30.42S
WOODRUFF       CLEAR     -4 -10  72 CALM      30.42S
RHINELANDER    CLEAR     -4  -9  79 W5        30.43S WCI -15
6HR MIN TEMP:  -4; 6HR MAX TEMP:   8;

EAGLE RIVER    CLEAR      0  -9  64 CALM      30.41S
LAND O LAKES   CLEAR    -11 -16  76 CALM      30.41S
PHILLIPS       CLEAR      1  -4  76 SW5       30.44S WCI  -8
TOMAHAWK       CLEAR     -5  -9  81 CALM      30.46S
MEDFORD        PTCLDY     0  -6  76 SW5       30.47S WCI -10
MERRILL        CLEAR     -7 -12  81 CALM      30.48S
$$

WIZ029-030-035-036-043>047-280700-
CENTRAL WISCONSIN

CITY           SKY/WX    TMP DP  RH WIND       PRES   REMARKS
WAUSAU         CLEAR      2  -7  66 W6        30.50R WCI  -9
6HR MIN TEMP:   0; 6HR MAX TEMP:  11;

MOSINEE        PTCLDY     0  -8  71 SW5       30.51R WCI -10
MARSHFIELD     PTCLDY     0  -9  65 SW7       30.51S WCI -13
6HR MIN TEMP:   0; 6HR MAX TEMP:  10;

STEVENS POINT  PTCLDY     3  -8  58 W8        30.54R WCI -10
WAUPACA        FAIR       5  -7  58 SW7       30.57S WCI  -7
WAUTOMA        NOT AVBL
WISC RAPIDS    CLEAR      2  -8  63 SW7       30.56S WCI -11
6HR MIN TEMP:  -2; 6HR MAX TEMP:  13;

CAMP DOUGLAS   NOT AVBL
$$

WIZ011>013-019>022-031-037>040-048>050-280700-
NORTHEAST WISCONSIN

CITY           SKY/WX    TMP DP  RH WIND       PRES   REMARKS
ANTIGO         CLEAR     -2  -8  76 W5        30.46S WCI -12
SHAWANO        CLEAR      8  -5  56 SW5       30.54S WCI  -1
OCONTO         CLEAR      4  -7  59 W3        30.55R
STURGEON BAY   CLEAR      7  -6  56 SW6       30.56R WCI  -3
6HR MIN TEMP:   7; 6HR MAX TEMP:  14;

GREEN BAY      CLEAR      8  -4  58 SW5       30.57R WCI   0
6HR MIN TEMP:   8; 6HR MAX TEMP:  15;

MANITOWOC      NOT AVBL
APPLETON       CLEAR      5  -6  61 SW7       30.56R WCI  -7
CLINTONVILLE   CLEAR      7  -6  56 SW5       30.55R WCI  -2
OSHKOSH        CLEAR      5  -5  63 SW5       30.58R WCI  -4
6HR MIN TEMP:   5; 6HR MAX TEMP:  14;

$$

WIZ032>034-041-042-053>061-280700-
SOUTHWEST WISCONSIN

CITY           SKY/WX    TMP DP  RH WIND       PRES   REMARKS
LA CROSSE      CLEAR      1  -6  72 SE5       30.62S WCI  -9
6HR MIN TEMP:   0; 6HR MAX TEMP:  11;

SPARTA         CLEAR     -9 -14  78 CALM      30.60S
VIROQUA        CLEAR     -3  -8  78 SW5       30.55S WCI -13
BOSCOBEL       FAIR      -8 -12  83 CALM      30.65R
6HR MIN TEMP:  -8; 6HR MAX TEMP:  11;

PRAIRIE DU CHI PTCLDY    -6 -12  75 CALM      30.65R
PLATTEVILLE    FAIR      -3  -8  78 S7        30.61S WCI -16
$$

WIZ056-057-062-063-064-067-068-280700-
SOUTH CENTRAL WISCONSIN

CITY           SKY/WX    TMP DP  RH WIND       PRES   REMARKS
REEDSBURG      CLEAR      3  -6  66 SW6       30.60R WCI  -8
BARABOO/DELLS  CLEAR      2  -7  65 CALM      30.59R
LONE ROCK      NOT AVBL
MINERAL POINT  PTCLDY     3  -6  66 SW6       30.58S WCI  -8
MADISON        PTCLDY     1  -8  66 CALM      30.60S
6HR MIN TEMP:   1; 6HR MAX TEMP:  11;

MIDDLETON      PTCLDY     0 -10  64 W5        30.60S WCI -10
WATERTOWN      CLEAR      1  -6  71 CALM      30.60S
MONROE         MOCLDY     1  -6  71 SW9       30.59S WCI -14
JANESVILLE     PTCLDY     0  -8  71 SW5       30.63S WCI -10
$$

WIZ051-052-058>065-066-070>072-280700-
SOUTHEAST WISCONSIN

CITY           SKY/WX    TMP DP  RH WIND       PRES   REMARKS
MILWAUKEE      CLEAR      4  -7  60 W8        30.63R WCI  -9
6HR MIN TEMP:   4; 6HR MAX TEMP:  13;

WAUKESHA       CLEAR      1  -6  71 SW7       30.61S WCI -11
MILWAUKEE/TIMM CLEAR      5  -6  61 SW7       30.62R WCI  -7
RACINE         CLEAR      3  -7  63 W9        30.64F WCI -12
6HR MIN TEMP:   2; 6HR MAX TEMP:  11;

BURLINGTON     CLEAR     -8 -14  75 CALM      30.62S
KENOSHA        CLEAR     -1  -8  72 SW8       30.63S WCI -15
6HR MIN TEMP:  -7; 6HR MAX TEMP:   7;

FOND DU LAC    CLEAR      4  -6  63 SW7       30.59R WCI  -8
6HR MIN TEMP:   4; 6HR MAX TEMP:  14;

SHEBOYGAN      CLEAR      3  -6  66 W6        30.59R WCI  -8
6HR MIN TEMP:   3; 6HR MAX TEMP:  11;

WEST BEND      FAIR       5  -6  61 SW6       30.58F WCI  -6
JUNEAU         CLEAR      1  -7  71 S8        30.60S WCI -14
$$

LSZ147-162-280700-
LAKE SUPERIOR

STATION/POSITION TIME  TEMP    WIND        PRES    WAVE
                       AIR SEA DIR/SP/G            HT/PER
                 (UTC) (F)     (DEG/KT/KT) (MB)    (FT/S)
DEVILS ISLAND    0500   13     230/ 15/ 19 1032.2R
PORT WING        0540   11     190/  9/ 13 1031.8R
SAXON HARBOR     0500   10     190/  4/  8 1031.5S
$$

LMZ867-665-643>646-280700-
LAKE MICHIGAN

STATION/POSITION TIME  TEMP    WIND        PRES    WAVE
                       AIR SEA DIR/SP/G            HT/PER
                 (UTC) (F)     (DEG/KT/KT) (MB)    (FT/S)
NORTHPORT PIER   0535   11     230/  8/ 13 1033.5R
SISTER BAY       0458   11     250/ 12/ 15   N/A
KEWAUNEE LAKESHO 0500          240/  5/  8 1033.9R
SHEBOYGAN LAKESH 0500    9     240/ 11/ 13 1037.8S
PORT WASHINGTON  0500    9     270/  9/ 13 1036.9S
MILWAUKEE LAKESH 0500   10     260/ 10/ 14   N/A
KENOSHA   LAKESH 0500    5     250/  8/ 10 1037.3F
$$

TC  - TEMPERATURE IN CELSIUS
VSB - VISIBILITY IN STATUTE MILES
WCI - WIND CHILL INDEX
HX  - HEAT INDEX



USA.gov is the U.S. government's official web portal to all federal, state and local government web resources and services.